Location: Demmingen
(48.6757°N, 10.4375°E)
Time: 23:42:02
(UTC+00:00)

CZ-2C R/B - Pass Details

Date: 12 August 2024
Orbit: 703 x 904 km, 98.2° (Epoch: 07 September)

Event Time Altitude Azimuth Distance (km) Brightness Sun altitude
Rises 00:23:52 0° 23° (NNE) 3,194 7.6 -25.0°
Reaches altitude 10° 00:26:27 10° 36° (NE) 2,294 6.4 -24.9°
Maximum altitude 00:30:45 28° 94° (E) 1,454 4.5 -24.7°
Enters shadow 00:32:17 24° 122° (ESE) 1,603 4.5 -24.6°
